TimeCST,TemperatureF,Dew PointF,Humidity,Sea Level PressureIn,VisibilityMPH,Wind Direction,Wind SpeedMPH,Gust SpeedMPH,PrecipitationIn,Events,Conditions,WindDirDegrees,DateUTC
12:13 AM,-9999,-9999,N/A,30.26,10.0,WNW,13.8,24.2,N/A,,Clear,300,2013-01-20 06:13:00
12:32 AM,-9999,-9999,N/A,30.27,10.0,WNW,13.8,-,N/A,,Clear,300,2013-01-20 06:32:00
12:52 AM,-9999,-9999,N/A,30.28,10.0,WNW,11.5,16.1,N/A,,Clear,300,2013-01-20 06:52:00
1:13 AM,-9999,-9999,N/A,30.28,10.0,WNW,16.1,-,N/A,,Clear,300,2013-01-20 07:13:00
1:32 AM,-9999,-9999,N/A,30.29,10.0,WNW,12.7,20.7,N/A,,Clear,300,2013-01-20 07:32:00
1:52 AM,-9999,-9999,N/A,30.30,10.0,WNW,17.3,23.0,N/A,,Clear,300,2013-01-20 07:52:00
2:12 AM,-9999,-9999,N/A,30.30,10.0,NW,18.4,-,N/A,,Clear,310,2013-01-20 08:12:00
2:32 AM,-9999,-9999,N/A,30.30,10.0,NW,13.8,-,N/A,,Clear,310,2013-01-20 08:32:00
2:53 AM,-9999,-9999,N/A,30.31,10.0,NW,15.0,-,N/A,,Clear,310,2013-01-20 08:53:00
3:12 AM,-9999,-9999,N/A,30.31,10.0,NW,12.7,-,N/A,,Clear,310,2013-01-20 09:12:00
3:32 AM,-9999,-9999,N/A,30.30,10.0,NW,13.8,21.9,N/A,,Clear,310,2013-01-20 09:32:00
3:53 AM,-9999,-9999,N/A,30.29,10.0,NW,11.5,-,N/A,,Clear,320,2013-01-20 09:53:00
4:12 AM,-9999,-9999,N/A,30.29,10.0,NW,12.7,-,N/A,,Clear,320,2013-01-20 10:12:00
4:32 AM,-9999,-9999,N/A,30.30,10.0,NW,9.2,-,N/A,,Clear,320,2013-01-20 10:32:00
4:53 AM,-9999,-9999,N/A,30.29,10.0,NW,4.6,-,N/A,,Clear,310,2013-01-20 10:53:00
5:12 AM,-9999,-9999,N/A,30.29,10.0,NW,12.7,-,N/A,,Clear,320,2013-01-20 11:12:00
5:32 AM,-9999,-9999,N/A,30.30,10.0,NW,12.7,-,N/A,,Scattered Clouds,320,2013-01-20 11:32:00
5:53 AM,-9999,-9999,N/A,30.30,10.0,NW,10.4,-,N/A,,Scattered Clouds,320,2013-01-20 11:53:00
6:12 AM,-9999,-9999,N/A,30.28,10.0,NNW,8.1,-,N/A,,Mostly Cloudy,330,2013-01-20 12:12:00
6:32 AM,-9999,-9999,N/A,30.30,10.0,NW,8.1,-,N/A,,Mostly Cloudy,320,2013-01-20 12:32:00
6:53 AM,-9999,-9999,N/A,30.31,10.0,NW,8.1,-,N/A,,Overcast,310,2013-01-20 12:53:00
7:12 AM,-9999,-9999,N/A,30.32,10.0,WNW,8.1,-,N/A,,Overcast,300,2013-01-20 13:12:00
7:32 AM,-9999,-9999,N/A,30.32,10.0,NW,6.9,-,N/A,,Unknown,310,2013-01-20 13:32:00
7:53 AM,-9999,-9999,N/A,30.32,7.0,WNW,9.2,-,N/A,,Unknown,290,2013-01-20 13:53:00
8:12 AM,-9999,-9999,N/A,30.33,5.0,WNW,8.1,-,N/A,,Unknown,290,2013-01-20 14:12:00
8:32 AM,-9999,-9999,N/A,30.32,2.0,WNW,6.9,-,N/A,,Unknown,290,2013-01-20 14:32:00
8:53 AM,-9999,-9999,N/A,30.34,3.0,WNW,5.8,-,N/A,,Unknown,300,2013-01-20 14:53:00
9:12 AM,-9999,-9999,N/A,30.35,2.5,WNW,8.1,-,N/A,,Unknown,300,2013-01-20 15:12:00
9:32 AM,-9999,-9999,N/A,30.35,1.8,NW,5.8,-,N/A,,Unknown,310,2013-01-20 15:32:00
9:53 AM,-9999,-9999,N/A,30.35,2.5,WNW,5.8,-,N/A,,Unknown,290,2013-01-20 15:53:00
10:12 AM,-9999,-9999,N/A,30.36,3.0,NW,5.8,-,N/A,,Unknown,310,2013-01-20 16:12:00
10:33 AM,-9999,-9999,N/A,30.37,3.0,WNW,8.1,-,N/A,,Unknown,300,2013-01-20 16:33:00
10:52 AM,-9999,-9999,N/A,30.38,3.0,WNW,8.1,-,N/A,,Unknown,300,2013-01-20 16:52:00
11:12 AM,-9999,-9999,N/A,30.38,4.0,WNW,10.4,-,N/A,,Unknown,290,2013-01-20 17:12:00
11:33 AM,-9999,-9999,N/A,30.37,4.0,WNW,11.5,16.1,N/A,,Unknown,290,2013-01-20 17:33:00
11:52 AM,-9999,-9999,N/A,30.37,5.0,WNW,11.5,16.1,N/A,,Unknown,300,2013-01-20 17:52:00
12:12 PM,-9999,-9999,N/A,30.35,10.0,WNW,10.4,16.1,N/A,,Overcast,300,2013-01-20 18:12:00
12:33 PM,-9999,-9999,N/A,30.34,10.0,West,9.2,16.1,N/A,,Scattered Clouds,280,2013-01-20 18:33:00
12:52 PM,-9999,-9999,N/A,30.33,10.0,West,11.5,18.4,N/A,,Scattered Clouds,280,2013-01-20 18:52:00
1:12 PM,-9999,-9999,N/A,30.32,10.0,WNW,11.5,-,N/A,,Mostly Cloudy,290,2013-01-20 19:12:00
1:52 PM,-9999,-9999,N/A,30.30,10.0,WNW,13.8,21.9,N/A,,Mostly Cloudy,290,2013-01-20 19:52:00
2:12 PM,-9999,-9999,N/A,30.30,10.0,West,12.7,19.6,N/A,,Scattered Clouds,280,2013-01-20 20:12:00
2:33 PM,-9999,-9999,N/A,30.30,10.0,WNW,17.3,-,N/A,,Scattered Clouds,290,2013-01-20 20:33:00
2:52 PM,-9999,-9999,N/A,30.30,10.0,WNW,12.7,-,N/A,,Mostly Cloudy,300,2013-01-20 20:52:00
3:12 PM,-9999,-9999,N/A,30.29,10.0,WNW,15.0,21.9,N/A,,Mostly Cloudy,300,2013-01-20 21:12:00
3:32 PM,-9999,-9999,N/A,30.29,10.0,West,13.8,21.9,N/A,,Scattered Clouds,280,2013-01-20 21:32:00
3:52 PM,-9999,-9999,N/A,30.29,10.0,WNW,13.8,19.6,N/A,,Mostly Cloudy,290,2013-01-20 21:52:00
4:13 PM,-9999,-9999,N/A,30.29,10.0,WNW,17.3,21.9,N/A,,Overcast,290,2013-01-20 22:13:00
4:32 PM,-9999,-9999,N/A,30.29,10.0,WNW,19.6,-,N/A,,Overcast,290,2013-01-20 22:32:00
4:52 PM,-9999,-9999,N/A,30.29,10.0,WNW,18.4,-,N/A,,Overcast,290,2013-01-20 22:52:00
5:13 PM,-9999,-9999,N/A,30.28,10.0,WNW,13.8,-,N/A,,Overcast,290,2013-01-20 23:13:00
5:32 PM,-9999,-9999,N/A,30.29,10.0,West,16.1,-,N/A,,Overcast,280,2013-01-20 23:32:00
5:52 PM,-9999,-9999,N/A,30.29,4.0,WNW,15.0,24.2,N/A,,Unknown,300,2013-01-20 23:52:00
6:13 PM,-9999,-9999,N/A,30.29,10.0,WNW,11.5,16.1,N/A,,Mostly Cloudy,300,2013-01-21 00:13:00
6:33 PM,-9999,-9999,N/A,30.29,4.0,NW,19.6,27.6,N/A,,Unknown,310,2013-01-21 00:33:00
6:52 PM,-9999,-9999,N/A,30.29,10.0,NW,17.3,25.3,N/A,,Scattered Clouds,310,2013-01-21 00:52:00
7:12 PM,-9999,-9999,N/A,30.29,10.0,NW,15.0,21.9,N/A,,Clear,310,2013-01-21 01:12:00
7:32 PM,-9999,-9999,N/A,30.29,10.0,WNW,12.7,-,N/A,,Clear,300,2013-01-21 01:32:00
7:53 PM,-9999,-9999,N/A,30.28,10.0,WNW,9.2,-,N/A,,Clear,300,2013-01-21 01:53:00
8:12 PM,-9999,-9999,N/A,30.28,10.0,WNW,11.5,-,N/A,,Clear,290,2013-01-21 02:12:00
8:32 PM,-9999,-9999,N/A,30.28,10.0,WNW,11.5,-,N/A,,Scattered Clouds,290,2013-01-21 02:32:00
8:53 PM,-9999,-9999,N/A,30.27,10.0,WNW,15.0,-,N/A,,Scattered Clouds,290,2013-01-21 02:53:00
9:13 PM,-9999,-9999,N/A,30.27,10.0,WNW,16.1,23.0,N/A,,Scattered Clouds,300,2013-01-21 03:13:00
9:32 PM,-9999,-9999,N/A,30.28,10.0,WNW,13.8,20.7,N/A,,Mostly Cloudy,300,2013-01-21 03:32:00
9:53 PM,-9999,-9999,N/A,30.28,10.0,NW,18.4,26.5,N/A,,Scattered Clouds,310,2013-01-21 03:53:00
10:12 PM,-9999,-9999,N/A,30.29,10.0,WNW,13.8,28.8,N/A,,Clear,300,2013-01-21 04:12:00
10:33 PM,-9999,-9999,N/A,30.30,10.0,NW,18.4,25.3,N/A,,Clear,310,2013-01-21 04:33:00
10:53 PM,-9999,-9999,N/A,30.29,10.0,NW,17.3,26.5,N/A,,Clear,310,2013-01-21 04:53:00
11:12 PM,-9999,-9999,N/A,30.29,10.0,NW,15.0,24.2,N/A,,Clear,310,2013-01-21 05:12:00
11:33 PM,-9999,-9999,N/A,30.29,10.0,NW,17.3,26.5,N/A,,Clear,310,2013-01-21 05:33:00
11:53 PM,-9999,-9999,N/A,30.29,10.0,NW,12.7,-,N/A,,Clear,310,2013-01-21 05:53:00